Spokane, WA
on Wednesday, January 2, 2013

Wednesday
Previous Day Next Day
Daily Summary
 ActualAverageRecord
Temperature
Mean Temperature °F 27°F  
Max Temperature 26°F 32°F 49°F (1939)
Min Temperature 10°F 23°F -6°F (1978)
Degree Days
Heating Degree Days 47 38  
Month to date heating degree days 95 76  
Since 1 July heating degree days 2520 2910  
Cooling Degree Days 0 0  
Month to date cooling degree days 0 0  
Year to date cooling degree days 0 0  
Moisture
Dew Point 18°F   
Average Humidity 83    
Maximum Humidity 92    
Minimum Humidity 74    
Precipitation
Precipitation 0.00 in 0.07 in 0.61 in (1951)
Month to date precipitation T 0.13  
Year to date precipitation T 0.13  
Snow
Snow 0.00 in 0.50 in 7.00 in (1899)
Month to date snowfall T 1.0  
Since 1 July snowfall 24.0 23.1  
Snow Depth 4.00 in   
Wind
Wind Speed 3 mph   
Max Wind Speed 8 mph   
Max Gust Speed 9 mph   
Visibility 9 miles   
Events Fog   

Key: T is trace of precipitation, MM is missing value
Source: NWS Daily Summary
Time(PST)TemperatureDew PointHumidity Pressure Visibility Wind DirectionWind SpeedGust SpeedPrecipitationEvents Conditions
12:53 AM 21.9°F 19.9°F 92% 30.62 in 10.0 miles Calm Calm - N/A   Overcast
1:53 AM 21.9°F 19.9°F 92% 30.63 in 10.0 miles NNE 6.9 mph - N/A   Overcast
2:53 AM 21.9°F 19.9°F 92% 30.63 in 9.0 miles NNE 3.5 mph - N/A   Overcast
3:53 AM 21.9°F 19.9°F 92% 30.62 in 9.0 miles North 3.5 mph - N/A   Overcast
4:53 AM 21.9°F 19.9°F 92% 30.61 in 7.0 miles Calm Calm - N/A   Overcast
5:53 AM 21.9°F 19.9°F 92% 30.59 in 7.0 miles North 3.5 mph - N/A   Overcast
6:53 AM 21.2°F 19.4°F 93% 30.49 in 7.0 miles NNE 5.8 mph - N/A   Overcast
7:53 AM 21.9°F 19.9°F 92% 30.59 in 9.0 miles North 5.8 mph - N/A   Overcast
8:53 AM 23.0°F 19.9°F 88% 30.60 in 9.0 miles North 4.6 mph - N/A   Overcast
9:53 AM 23.0°F 19.9°F 88% 30.61 in 10.0 miles NE 4.6 mph - N/A   Overcast
10:53 AM 24.1°F 21.0°F 88% 30.61 in 10.0 miles NNE 3.5 mph - N/A   Overcast
11:53 AM 25.0°F 19.9°F 81% 30.59 in 10.0 miles Calm Calm - N/A   Overcast
12:53 PM 25.0°F 18.0°F 75% 30.57 in 10.0 miles East 4.6 mph - N/A   Overcast
1:53 PM 25.0°F 19.9°F 81% 30.57 in 10.0 miles North 4.6 mph - N/A   Overcast
2:53 PM 25.0°F 19.0°F 78% 30.57 in 10.0 miles NNE 5.8 mph - N/A   Mostly Cloudy
3:53 PM 25.0°F 19.0°F 78% 30.56 in 10.0 miles NNE 4.6 mph - N/A   Overcast
4:53 PM 21.9°F 18.0°F 85% 30.56 in 10.0 miles North 5.8 mph - N/A   Scattered Clouds
5:53 PM 21.0°F 17.1°F 85% 30.56 in 10.0 miles Calm Calm - N/A   Partly Cloudy
6:53 PM 21.0°F 17.1°F 85% 30.55 in 10.0 miles Calm Calm - N/A   Clear
7:53 PM 18.0°F 14.0°F 84% 30.55 in 10.0 miles Calm Calm - N/A   Clear
8:53 PM 16.0°F 12.9°F 88% 30.54 in 7.0 miles Calm Calm - N/A   Clear
9:53 PM 12.0°F 8.1°F 84% 30.54 in 7.0 miles Calm Calm - N/A   Clear
10:53 PM 10.9°F 9.0°F 92% 30.53 in 7.0 miles Calm Calm - N/A Fog Patches of Fog
11:53 PM 12.2°F 10.4°F 92% 30.40 in 7.0 miles Calm Calm - N/A Fog Patches of Fog
Moon Phase
Jan. 02 Jan. 04 Jan. 11 Jan. 18 Jan. 26
Sunrise:07:38 AM (PST) Moon Rise:10:14 PM (PST)
Sunset:04:10 PM (PST) Moon Set:09:58 AM (PST)

Copyright © 2014 The Weather Underground, Inc.